Dewpoint
54 54 54 53 53 54 54 54 54 54 53 53 53 53 52 53 53 53 53 52 52 52 51 52 52 52 52 52 53 53 52 53 53 53 53 52 52 53 53 53 54 53
54 53 53 53 52 52 53 53 53 52 52 53 53 52 52 52 52 52 52 51 51 51 50 50 50 50 50 51 52 51 51 52 51 51 52 51 51 52 52 52 52 52
53 53 53 52 52 52 52 53 53 52 52 52 52 52 51 51 51 50 50 51 50 50 49 48 49 49 49 49 50 49 50 50 49 50 51 50 50 50 51 51 51 51
53 53 52 52 52 51 51 52 51 51 51 50 50 50 50 50 50 50 50 49 48 47 47 46 47 47 48 48 48 47 49 48 48 50 49 49 49 48 49 50 50 50
52 52 51 51 50 51 51 50 50 50 50 50 50 50 49 49 49 48 47 46 46 45 45 44 45 46 46 45 46 46 47 47 47 48 47 48 48 48 48 48 48 48
50 49 49 49 50 50 49 49 48 49 49 48 48 48 49 48 46 45 44 44 43 42 42 43 43 44 45 44 45 46 47 46 46 46 45 45 46 47 47 47 46 45
49 49 49 48 49 49 49 48 49 48 47 48 48 48 47 46 45 43 42 43 41 41 40 41 41 43 44 44 44 45 46 46 45 44 43 44 45 45 44 45 44 43
49 49 48 48 48 48 47 46 46 47 48 47 47 45 45 44 43 44 42 42 41 39 39 39 39 41 42 42 42 44 45 45 46 44 43 43 43 42 42 43 45 42
48 48 48 48 47 47 47 47 47 47 46 45 44 44 44 43 43 43 42 40 39 40 38 38 39 39 41 41 42 43 43 44 44 43 43 43 42 41 40 42 42 42
47 47 47 46 47 47 48 47 45 45 44 45 44 43 42 43 43 41 41 41 39 38 37 38 38 38 39 39 40 42 43 42 42 42 42 42 41 40 40 41 40 40
47 46 47 47 47 46 47 46 46 45 44 42 43 42 42 42 41 40 40 39 40 38 37 37 37 37 37 39 40 42 43 43 42 41 42 41 41 41 41 40 40 40
45 46 46 47 47 46 46 45 44 43 43 43 42 41 41 41 41 41 38 37 37 37 37 36 37 37 37 38 39 41 43 43 42 42 41 40 40 40 39 39 40 41
45 46 46 46 45 45 45 43 43 43 42 41 42 41 41 41 40 40 41 39 37 37 37 37 37 38 38 39 39 40 42 41 41 41 40 41 40 39 38 39 39 39
45 44 44 43 43 43 42 43 42 42 42 43 43 42 41 40 40 41 40 39 39 38 37 38 37 37 37 37 38 40 42 41 41 41 41 41 41 39 39 38 38 38
42 42 42 41 41 41 42 42 42 43 42 42 43 43 43 41 40 40 39 38 38 39 37 38 38 38 38 38 38 39 42 41 41 41 41 40 39 38 38 37 37 38
40 40 39 40 40 41 41 42 41 42 43 42 41 41 41 41 40 40 38 38 38 37 38 39 38 38 38 38 38 39 40 43 42 41 40 39 39 38 38 37 38 38
37 36 37 38 40 40 40 39 40 41 41 42 42 42 42 41 41 40 40 39 37 37 37 38 38 36 38 37 37 38 40 42 42 40 39 39 38 37 36 37 37 37
36 36 36 37 37 37 37 37 39 40 41 41 42 42 42 42 42 41 41 41 39 37 37 37 37 38 36 37 36 37 38 40 42 40 40 38 37 36 36 37 37 37
34 34 34 36 36 36 38 38 41 40 41 40 41 42 42 41 41 41 41 41 40 38 37 35 35 37 36 36 36 36 36 39 40 40 38 37 36 35 35 36 37 37
33 32 34 35 36 37 38 37 38 38 41 41 41 42 41 41 41 42 41 40 40 40 39 36 35 36 36 36 36 36 36 37 40 39 38 37 36 35 35 36 36 36
30 32 33 34 36 37 38 38 38 39 39 39 40 40 40 40 40 41 41 40 40 40 40 37 36 36 35 35 35 35 35 39 40 40 38 38 36 35 34 35 36 36
31 32 33 32 33 35 37 37 38 38 39 40 40 39 40 40 40 40 40 40 40 39 39 37 34 35 35 35 35 35 35 40 38 39 37 36 35 34 33 33 34 35
31 32 33 33 33 34 35 37 38 37 37 37 38 39 38 38 39 40 39 39 38 40 40 37 34 35 35 35 35 35 36 39 37 36 36 35 35 34 33 32 38 35
31 31 32 32 33 34 36 37 37 36 36 36 36 36 36 37 38 39 39 38 36 37 39 39 36 36 35 36 35 35 36 38 34 35 36 35 33 34 33 32 39 39
31 32 32 33 34 36 38 37 37 37 36 36 35 35 36 35 36 37 38 39 39 38 39 39 38 38 36 35 36 36 36 37 35 34 36 36 33 31 32 32 32 38
34 35 35 35 35 36 37 37 36 36 36 35 34 33 34 34 35 37 37 38 40 40 39 38 38 39 37 35 36 36 36 37 34 33 34 36 35 30 31 31 32 32